TECHNOSAT

Satellite information

Favourite Embed

Satellite Type and Status

PAYLOADIN ORBIT

Key statistics

Satellite TECHNOSAT at a glance.

Uptime

2856

Days in orbit

Revolutions

≈ 15.0

Per day

Orbit

SSO

Sun Synchronous Orbit

Inclination

97.4

Latest

Satellite identification and parameters

Extended collection of information and parameters for TECHNOSAT.

Object identification

Identified? True

Debris? False

Object name: TECHNOSAT

International designator: 2017-042E

Object number (NORAD): 42829

Object ID (CCSDS): 42829

Country: GERMANY (GER)

Current information (Y/N): Y

RCS size: MEDIUM

Orbital parameters

Period: 95.902 minutes

Inclination: 97.3929 deg

SMA: 6940.299 km

Apoapsis: 572.5 km

Periapsis: 551.828 km

RAAN: 298.8323 deg

Eccentricy: 0.0014893

Argument of periapsis: 34.3063 deg

Mean anomaly: 325.9121 deg

Mean motion: 15.01535033 rev/day

Mean motion (dot): 0.00003865 rev/day2

B* drag term: 0.00030224 1/REarth

Two-line elements (TLE)

Creation date: May 8, 2025, 10:26 p.m.

Reference frame: TEME

Reference center: EARTH

Epoch: May 8, 2025, 2:12 p.m. UTC

TLE line 0: 0 TECHNOSAT

TLE line 1: 1 42829U 17042E 25128.59183567 .00003865 00000-0 30224-3 0 9997

TLE line 2: 2 42829 97.3929 298.8323 0014893 34.3063 325.9121 15.01535033425926

Live tracking on map

Real-time ground track for satellite TECHNOSAT.

In-orbit conjunctions

There are no conjunctions computed for TECHNOSAT, at the moment. Check back to stay up to date, as we update our databases every day.

Go to all conjunctions

Associated space launch

Kanopus-V-IK is a small Russian remote sensing satellite for monitoring wildfires. Weighing about 473 kg, it is intended for 5 years of operation in a 510 km sun-synchronous orbit.

TECHNOSAT was lifted into orbit during the mission ‘Soyuz-2.1a/Fregat | Kanopus-V-IK’, on board a Soyuz 2.1a/Fregat-M space rocket.

The launch took place on July 14, 2017, 6:36 a.m. from 31/6.

For more information about the launch, click the button.

Launch to space Soyuz-2.1a/Fregat | Kanopus-V-IK
Soyuz-2.1a/Fregat | Kanopus-V-IK

Agency: N/A

Status: Launch was a Partial Failure

Launch date: July 14, 2017, 6:36 a.m. UTC

Rocket: Soyuz 2.1a/Fregat-M

Launch pad: 31/6

Location: Baikonur Cosmodrome, Republic of Kazakhstan

...

Latest news about this satellite

There are no fresh news available about this satellite. Check back as we update our databases every day.


Newsletter sign-up

Weekly statistics, charts and insights to help you stay on top of the space industry.